| time (UTC) | temp C | wind direction | speed KPH | gust KPH | rain 1hr cm | rain 24hr cm | rain mn cm | humidity % | barometer mb |
| 20260507175021 | 12 | 0 | 0.0 | 0.0 | 0.00 | 0.00 | 0.08 | 81 | |
| 20260507174023 | 12 | 0 | 0.0 | 0.0 | 0.00 | 0.00 | 0.08 | 80 | |
| 20260507173026 | 13 | 0 | 0.0 | 0.0 | 0.00 | 0.00 | 0.08 | 79 | |
| 20260507172021 | 13 | 0 | 0.0 | 0.0 | 0.00 | 0.00 | 0.08 | 79 | |
| 20260507171025 | 13 | 0 | 0.0 | 0.0 | 0.00 | 0.00 | 0.08 | 79 | |
| 20260507170036 | 13 | 0 | 0.0 | 0.0 | 0.00 | 0.00 | 0.08 | 78 | |
| 20260507165020 | 14 | 0 | 0.0 | 0.0 | 0.00 | 0.00 | 0.08 | 77 | |
| 20260507163022 | 15 | 0 | 0.0 | 0.0 | 0.00 | 0.00 | 0.08 | 71 | |
| 20260507161032 | 15 | 0 | 0.0 | 0.0 | 0.00 | 0.00 | 0.08 | 70 | |
| 20260507160027 | 15 | 0 | 0.0 | 0.0 | 0.00 | 0.00 | 0.08 | 70 | |
| 20260507155032 | 15 | 0 | 0.0 | 0.0 | 0.00 | 0.00 | 0.08 | 70 | |
| 20260507154023 | 15 | 0 | 0.0 | 0.0 | 0.00 | 0.00 | 0.08 | 70 | |
| 20260507153036 | 16 | 0 | 0.0 | 0.0 | 0.00 | 0.00 | 0.08 | 71 | |
| 20260507152022 | 15 | 0 | 0.0 | 0.0 | 0.00 | 0.00 | 0.08 | 70 | |
| 20260507150039 | 15 | 0 | 0.0 | 0.0 | 0.00 | 0.00 | 0.08 | 69 | |
| 20260507145026 | 16 | 0 | 0.0 | 0.0 | 0.00 | 0.00 | 0.08 | 65 | |
| 20260507144036 | 16 | 0 | 0.0 | 0.0 | 0.00 | 0.00 | 0.08 | 61 | |
| 20260507142035 | 16 | 0 | 0.0 | 0.0 | 0.00 | 0.00 | 0.08 | 60 | |
| 20260507141036 | 17 | 0 | 0.0 | 0.0 | 0.00 | 0.00 | 0.08 | 59 | |
| 20260507140039 | 17 | 0 | 0.0 | 0.0 | 0.00 | 0.00 | 0.08 | 57 | |
| 20260507135035 | 17 | 0 | 0.0 | 0.0 | 0.00 | 0.00 | 0.08 | 56 | |
| 20260507134031 | 17 | 0 | 0.0 | 0.0 | 0.00 | 0.00 | 0.08 | 57 | |
| 20260507133037 | 17 | 0 | 0.0 | 0.0 | 0.00 | 0.00 | 0.08 | 57 | |
| 20260507131021 | 17 | 0 | 0.0 | 0.0 | 0.00 | 0.00 | 0.08 | 57 | |
| 20260507125019 | 17 | 0 | 0.0 | 0.0 | 0.00 | 0.00 | 0.08 | 56 | |
| 20260507124029 | 17 | 0 | 0.0 | 0.0 | 0.00 | 0.00 | 0.08 | 57 | |
| 20260507123022 | 18 | 0 | 0.0 | 0.0 | 0.00 | 0.00 | 0.08 | 55 | |
| 20260507122021 | 18 | 0 | 0.0 | 0.0 | 0.00 | 0.00 | 0.08 | 54 | |
| 20260507121024 | 18 | 0 | 0.0 | 0.0 | 0.00 | 0.00 | 0.08 | 56 | |
| 20260507115025 | 17 | 0 | 0.0 | 0.0 | 0.00 | 0.00 | 0.08 | 58 | |
| 20260507114023 | 16 | 0 | 0.0 | 0.0 | 0.00 | 0.00 | 0.08 | 60 | |
| 20260507113037 | 16 | 0 | 0.0 | 0.0 | 0.00 | 0.00 | 0.08 | 59 | |
| 20260507112018 | 17 | 0 | 0.0 | 0.0 | 0.00 | 0.00 | 0.08 | 58 | |
| 20260507111026 | 17 | 0 | 0.0 | 0.0 | 0.00 | 0.00 | 0.08 | 57 | |
| 20260507110045 | 17 | 0 | 0.0 | 0.0 | 0.00 | 0.00 | 0.08 | 57 | |
| 20260507104028 | 16 | 0 | 0.0 | 0.0 | 0.00 | 0.00 | 0.08 | 61 | |
| 20260507103038 | 16 | 0 | 0.0 | 0.0 | 0.00 | 0.00 | 0.08 | 62 | |
| 20260507102035 | 17 | 0 | 0.0 | 0.0 | 0.00 | 0.00 | 0.08 | 61 | |
| 20260507100032 | 17 | 0 | 0.0 | 0.0 | 0.00 | 0.00 | 0.08 | 64 | |
| 20260507094021 | 16 | 0 | 0.0 | 0.0 | 0.00 | 0.00 | 0.08 | 66 | |
| 20260507093026 | 15 | 0 | 0.0 | 0.0 | 0.00 | 0.00 | 0.08 | 66 | |
| 20260507092021 | 17 | 0 | 0.0 | 0.0 | 0.00 | 0.00 | 0.08 | 65 | |
| 20260507091023 | 17 | 0 | 0.0 | 0.0 | 0.00 | 0.00 | 0.08 | 67 | |
| 20260507090029 | 15 | 0 | 0.0 | 0.0 | 0.00 | 0.00 | 0.08 | 73 | |
| 20260507085020 | 14 | 0 | 0.0 | 0.0 | 0.00 | 0.00 | 0.08 | 73 | |
| 20260507084034 | 14 | 0 | 0.0 | 0.0 | 0.00 | 0.00 | 0.08 | 77 | |
| 20260507083029 | 14 | 0 | 0.0 | 0.0 | 0.00 | 0.00 | 0.08 | 76 | |
| 20260507082026 | 15 | 0 | 0.0 | 0.0 | 0.00 | 0.00 | 0.08 | 78 | |
| 20260507075021 | 11 | 0 | 0.0 | 0.0 | 0.03 | 0.00 | 0.08 | 85 | |
| 20260507074019 | 11 | 0 | 0.0 | 0.0 | 0.03 | 0.00 | 0.08 | 85 | |
| 20260507073035 | 11 | 0 | 0.0 | 0.0 | 0.03 | 0.00 | 0.08 | 86 | |
| 20260507072030 | 10 | 0 | 0.0 | 0.0 | 0.03 | 0.00 | 0.08 | 85 | |
| 20260507071019 | 10 | 0 | 0.0 | 0.0 | 0.00 | 0.00 | 0.05 | 85 | |
| 20260507070030 | 10 | 0 | 0.0 | 0.0 | 0.00 | 0.00 | 0.05 | 85 | |
| 20260507065019 | 10 | 0 | 0.0 | 0.0 | 0.00 | 0.00 | 0.05 | 84 | |
| 20260507064018 | 11 | 0 | 0.0 | 0.0 | 0.00 | 0.00 | 0.05 | 84 | |
| 20260507062032 | 11 | 0 | 0.0 | 0.0 | 0.00 | 0.00 | 0.05 | 86 | |
| 20260507060026 | 10 | 0 | 0.0 | 0.0 | 0.00 | 0.00 | 0.05 | 87 | |
| 20260507055025 | 10 | 0 | 0.0 | 0.0 | 0.00 | 0.00 | 0.05 | 87 | |
| 20260507054030 | 10 | 0 | 0.0 | 0.0 | 0.00 | 0.00 | 0.05 | 87 | |
| 20260507053028 | 10 | 0 | 0.0 | 0.0 | 0.00 | 0.00 | 0.05 | 87 | |
| 20260507052031 | 10 | 0 | 0.0 | 0.0 | 0.00 | 0.00 | 0.05 | 87 | |
| 20260507051025 | 10 | 0 | 0.0 | 0.0 | 0.00 | 0.00 | 0.05 | 88 | |
| 20260507050031 | 10 | 0 | 0.0 | 0.0 | 0.00 | 0.00 | 0.05 | 87 | |
| 20260507045019 | 10 | 0 | 0.0 | 0.0 | 0.00 | 0.00 | 0.05 | 88 | |
| 20260507044020 | 9 | 0 | 0.0 | 0.0 | 0.00 | 0.00 | 0.05 | 88 | |
| 20260507043024 | 9 | 0 | 0.0 | 0.0 | 0.00 | 0.00 | 0.05 | 88 | |
| 20260507042026 | 9 | 0 | 0.0 | 0.0 | 0.00 | 0.00 | 0.05 | 88 | |
| 20260507041022 | 9 | 0 | 0.0 | 0.0 | 0.00 | 0.00 | 0.05 | 88 | |
| 20260507040028 | 9 | 0 | 0.0 | 0.0 | 0.00 | 0.00 | 0.05 | 88 | |
| 20260507035033 | 9 | 0 | 0.0 | 0.0 | 0.00 | 0.00 | 0.05 | 88 | |
| 20260507034018 | 9 | 0 | 0.0 | 0.0 | 0.00 | 0.00 | 0.05 | 88 | |
| 20260507033029 | 9 | 0 | 0.0 | 0.0 | 0.00 | 0.00 | 0.05 | 88 | |
| 20260507032032 | 9 | 0 | 0.0 | 0.0 | 0.00 | 0.00 | 0.05 | 88 | |
| 20260507031030 | 10 | 0 | 0.0 | 0.0 | 0.00 | 0.00 | 0.05 | 87 | |
| 20260507030037 | 10 | 0 | 0.0 | 0.0 | 0.00 | 0.00 | 0.05 | 87 | |
| 20260507025024 | 9 | 0 | 0.0 | 0.0 | 0.00 | 0.00 | 0.05 | 87 | |
| 20260507022032 | 9 | 0 | 0.0 | 0.0 | 0.00 | 0.00 | 0.05 | 88 | |
| 20260507020035 | 9 | 0 | 0.0 | 0.0 | 0.00 | 0.00 | 0.05 | 88 | |
| 20260507015026 | 9 | 0 | 0.0 | 0.0 | 0.00 | 0.00 | 0.05 | 87 | |
| 20260507014031 | 9 | 0 | 0.0 | 0.0 | 0.03 | 0.00 | 0.05 | 87 | |
| 20260507013032 | 9 | 0 | 0.0 | 0.0 | 0.05 | 0.00 | 0.05 | 87 | |
| 20260507012020 | 10 | 0 | 0.0 | 0.0 | 0.05 | 0.00 | 0.05 | 87 | |
| 20260507011019 | 10 | 0 | 0.0 | 0.0 | 0.05 | 0.00 | 0.05 | 87 | |
| 20260507010037 | 10 | 0 | 0.0 | 0.0 | 0.05 | 0.00 | 0.05 | 86 | |
| 20260507005029 | 10 | 0 | 0.0 | 0.0 | 0.05 | 0.00 | 0.05 | 86 | |
| 20260507004028 | 10 | 0 | 0.0 | 0.0 | 0.03 | 0.00 | 0.03 | 85 | |
| 20260507003027 | 10 | 0 | 0.0 | 0.0 | 0.00 | 0.00 | 0.00 | 85 | |
| 20260507002020 | 10 | 0 | 0.0 | 0.0 | 0.00 | 0.00 | 0.00 | 85 | |
| 20260507001018 | 10 | 0 | 0.0 | 0.0 | 0.00 | 0.00 | 0.00 | 85 | |
| 20260506235024 | 10 | 0 | 0.0 | 0.0 | 0.00 | 0.00 | 0.71 | 84 | |
| 20260506234024 | 10 | 0 | 0.0 | 0.0 | 0.00 | 0.00 | 0.71 | 84 | |
| 20260506233029 | 10 | 0 | 0.0 | 0.0 | 0.00 | 0.00 | 0.71 | 84 | |
| 20260506232025 | 10 | 0 | 0.0 | 0.0 | 0.00 | 0.00 | 0.71 | 84 | |
| 20260506231024 | 10 | 0 | 0.0 | 0.0 | 0.00 | 0.00 | 0.71 | 84 | |
| 20260506230038 | 10 | 0 | 0.0 | 0.0 | 0.00 | 0.00 | 0.71 | 83 | |
| 20260506224029 | 10 | 0 | 0.0 | 0.0 | 0.00 | 0.00 | 0.71 | 84 | |
| 20260506223034 | 10 | 0 | 0.0 | 0.0 | 0.00 | 0.00 | 0.71 | 84 | |
| 20260506222030 | 10 | 0 | 0.0 | 0.0 | 0.00 | 0.00 | 0.71 | 84 | |
| 20260506221032 | 10 | 0 | 0.0 | 0.0 | 0.00 | 0.00 | 0.71 | 83 | |
| 20260506220040 | 10 | 0 | 0.0 | 0.0 | 0.00 | 0.00 | 0.71 | 83 | |
| 20260506214029 | 10 | 0 | 0.0 | 0.0 | 0.00 | 0.00 | 0.71 | 83 | |
| 20260506213036 | 10 | 0 | 0.0 | 0.0 | 0.00 | 0.00 | 0.71 | 83 | |
| 20260506212028 | 10 | 0 | 0.0 | 0.0 | 0.00 | 0.00 | 0.71 | 83 | |
| 20260506211023 | 10 | 0 | 0.0 | 0.0 | 0.00 | 0.00 | 0.71 | 83 | |
| 20260506210037 | 10 | 0 | 0.0 | 0.0 | 0.00 | 0.00 | 0.71 | 83 | |
| 20260506205021 | 10 | 0 | 0.0 | 0.0 | 0.00 | 0.00 | 0.71 | 83 | |
| 20260506203026 | 10 | 0 | 0.0 | 0.0 | 0.00 | 0.00 | 0.71 | 82 | |
| 20260506200042 | 10 | 0 | 0.0 | 0.0 | 0.00 | 0.00 | 0.71 | 82 | |
| 20260506195021 | 11 | 0 | 0.0 | 0.0 | 0.00 | 0.00 | 0.71 | 82 | |
| 20260506194026 | 11 | 0 | 0.0 | 0.0 | 0.00 | 0.00 | 0.71 | 82 | |
| 20260506193035 | 11 | 0 | 0.0 | 0.0 | 0.00 | 0.00 | 0.71 | 82 | |
| 20260506192026 | 11 | 0 | 0.0 | 0.0 | 0.00 | 0.00 | 0.71 | 82 | |
| 20260506191024 | 11 | 0 | 0.0 | 0.0 | 0.00 | 0.00 | 0.71 | 82 | |
| 20260506190043 | 11 | 0 | 0.0 | 0.0 | 0.00 | 0.00 | 0.71 | 82 | |
| 20260506185030 | 11 | 0 | 0.0 | 0.0 | 0.00 | 0.00 | 0.71 | 82 | |
| 20260506184031 | 11 | 0 | 0.0 | 0.0 | 0.03 | 0.00 | 0.71 | 83 | |
| 20260506183031 | 11 | 0 | 0.0 | 0.0 | 0.03 | 0.00 | 0.71 | 82 | |
| 20260506182023 | 11 | 0 | 0.0 | 0.0 | 0.05 | 0.00 | 0.71 | 82 | |
| 20260506181032 | 11 | 0 | 0.0 | 0.0 | 0.08 | 0.00 | 0.71 | 82 | |
| 20260506180042 | 12 | 0 | 0.0 | 0.0 | 0.08 | 0.00 | 0.71 | 82 |